EW7603 Weather Reports


time (UTC)temp
F
wind
direction
speed
knots
gust
knots
rain 1hr
in
rain 24hr
in
rain mn
in
humidity
%
barometer
mb
20260506044510 48 141 4.3 0.0 0.00 0.00 0.00 91 1007.8
20260506043008 48 134 4.3 0.0 0.00 0.00 0.00 91 1007.9
20260506041513 48 132 5.2 0.0 0.00 0.00 0.00 90 1008.1
20260506040004 48 168 3.5 0.0 0.00 0.00 0.02 89 1008.0
20260506034504 48 186 4.3 0.0 0.00 0.00 0.02 88 1008.3
20260506033002 48 178 2.6 0.0 0.00 0.00 0.02 87 1008.3
20260506031607 48 157 2.6 0.0 0.00 0.00 0.02 87 1008.3
20260506030059 48 162 3.5 0.0 0.00 0.00 0.02 86 1008.0
20260506024559 49 148 3.5 0.0 0.00 0.00 0.02 86 1007.8
20260506023100 49 143 3.5 0.0 0.00 0.00 0.02 85 1007.8
20260506021558 49 148 2.6 0.0 0.00 0.00 0.02 85 1007.9
20260506020054 50 120 2.6 0.0 0.00 0.00 0.02 82 1007.9
20260506014556 50 116 2.6 0.0 0.00 0.00 0.02 80 1007.9
20260506013052 50 138 2.6 0.0 0.00 0.00 0.02 78 1007.8
20260506011551 50 123 1.7 0.0 0.00 0.00 0.02 79 1007.8
20260506010050 49 98 1.7 0.0 0.00 0.00 0.02 78 1007.7
20260506004554 50 80 0.9 0.0 0.00 0.00 0.02 78 1007.6
20260506003049 50 97 0.9 0.0 0.00 0.00 0.02 77 1007.5
20260506001608 50 97 0.9 0.0 0.00 0.00 0.02 77 1007.2
20260506000049 50 73 0.9 0.0 0.00 0.00 0.02 76 1007.2
20260505234551 51 61 1.7 0.0 0.00 0.00 0.02 75 1006.9
20260505233054 51 288 0.0 0.0 0.00 0.00 0.02 74 1006.9
20260505231552 51 287 0.0 0.0 0.00 0.00 0.02 73 1007.1
20260505230046 51 288 0.0 0.0 0.00 0.00 0.02 72 1007.1
20260505224548 51 288 0.0 0.0 0.00 0.00 0.02 73 1007.1
20260505223054 51 288 0.0 0.0 0.00 0.00 0.02 73 1007.1
20260505221551 51 280 0.0 0.0 0.00 0.00 0.02 73 1007.1
20260505220047 50 280 0.9 0.0 0.00 0.00 0.02 74 1007.2
20260505214558 50 280 0.9 0.0 0.00 0.00 0.02 75 1007.1
20260505213055 50 280 0.9 0.0 0.00 0.00 0.02 74 1007.3
20260505211543 50 275 1.7 0.0 0.00 0.00 0.02 75 1007.3
20260505210043 50 274 1.7 0.0 0.00 0.00 0.02 75 1007.2
20260505204542 50 261 3.5 0.0 0.00 0.00 0.02 75 1007.2
20260505203046 50 267 2.6 0.0 0.00 0.00 0.02 75 1007.4
20260505201550 50 262 3.5 0.0 0.00 0.00 0.02 75 1007.6
20260505200040 50 265 3.5 0.0 0.00 0.00 0.02 76 1007.3
20260505194541 50 247 2.6 0.0 0.00 0.00 0.02 78 1007.2
20260505193045 50 209 3.5 0.0 0.00 0.00 0.02 76 1006.9
20260505191548 50 192 2.6 0.0 0.00 0.00 0.02 76 1007.0
20260505190037 51 221 3.5 0.0 0.00 0.00 0.02 71 1006.8
20260505184531 53 228 2.6 0.0 0.00 0.00 0.00 66 1006.7
20260505183045 54 266 5.2 0.0 0.00 0.00 0.00 60 1006.5
20260505181530 55 266 4.3 0.0 0.00 0.00 0.00 55 1006.2
20260505180036 56 210 3.5 0.0 0.00 0.00 0.00 52 1006.2
20260505174536 56 292 4.3 0.0 0.00 0.00 0.00 49 1006.0
20260505173037 57 247 4.3 0.0 0.00 0.00 0.00 47 1005.6
20260505171533 58 242 4.3 0.0 0.00 0.00 0.00 48 1005.3
20260505170026 59 245 5.2 0.0 0.00 0.00 0.00 47 1005.0
20260505164534 60 266 4.3 0.0 0.00 0.00 0.00 48 1005.0
20260505163027 59 323 2.6 0.0 0.00 0.00 0.00 47 1005.1
20260505161525 59 282 3.5 0.0 0.00 0.00 0.00 48 1005.0
20260505153028 59 288 5.2 0.0 0.00 0.00 0.00 51 1004.9
20260505151522 61 269 5.2 0.0 0.00 0.00 0.00 48 1003.8
20260505124505 52 234 4.3 0.0 0.00 0.00 0.00 74 1002.2
20260505123001 53 293 3.5 0.0 0.00 0.00 0.00 71 1002.0
20260505121557 55 216 6.1 0.0 0.00 0.00 0.00 71 1002.0
20260505120055 58 282 8.7 0.0 0.00 0.00 0.00 72 1001.4
20260505114559 58 260 7.8 0.0 0.00 0.00 0.00 75 1000.5
20260505113053 58 230 7.8 0.0 0.00 0.00 0.00 74 1000.3
20260505111554 58 222 5.2 0.0 0.00 0.00 0.00 74 1000.2
20260505101546 59 229 9.6 0.0 0.00 0.00 0.00 72 999.5
20260505100043 59 226 8.7 0.0 0.00 0.00 0.00 73 999.3
20260505094539 59 203 6.1 0.0 0.00 0.00 0.00 72 999.3
20260505093044 59 207 6.1 0.0 0.00 0.00 0.00 72 999.1
20260505091542 60 198 7.8 0.0 0.00 0.00 0.00 70 998.8
20260505090046 60 203 6.1 0.0 0.00 0.00 0.00 70 998.7
20260505084533 60 176 6.1 0.0 0.00 0.00 0.00 69 998.5
20260505083010 61 168 6.1 0.0 0.00 0.00 0.00 68 998.0
20260505081505 61 219 7.0 0.0 0.00 0.00 0.00 66 998.1
20260505080004 61 204 7.8 0.0 0.00 0.00 0.00 67 998.0
20260505074503 61 233 5.2 0.0 0.00 0.00 0.00 67 997.9
20260505073007 62 180 7.0 0.0 0.00 0.00 0.00 66 998.0
20260505071502 61 170 8.7 0.0 0.00 0.00 0.00 66 998.3
20260505070000 60 201 6.1 0.0 0.00 0.00 0.00 67 998.6
20260505064600 60 183 5.2 0.0 0.00 0.00 0.00 69 998.6
20260505063102 59 162 6.1 0.0 0.00 0.00 0.00 69 998.8
20260505061602 59 219 6.1 0.0 0.00 0.00 0.00 68 999.1
20260505060056 60 190 6.1 0.0 0.00 0.00 0.00 68 999.2